User: anonymous   Login
Location: ??????
(38.1303°N, 24.0039°E)
Time: 19:46:08
(UTC+00:00)
Language:

DELTA 2 R/B (1) - Orbit

View from above orbital plane
View from above orbital plane
View from above satellite
View from above satellite

Ground track
Ground track

The orbit data is extracted from the following two-line orbital elements,

1 27665U 03005C   21267.99506192 -.00000016  00000-0  27182-4 0  9995
2 27665  39.5759  82.1703 0009695 326.8953 184.3419 14.28562864974086
Epoch (UTC): 24 September 2021 23:52:53
Eccentricity: 0.0009695
inclination: 39.5759°
perigee height: 789 km
apogee height: 803 km
right ascension of ascending node: 82.1703°
argument of perigee: 326.8953°
revolutions per day: 14.28562864
mean anomaly at epoch: 184.3419°
orbit number at epoch: 97408

The dashed part of the orbit path shows where the satellite is in the earth's shadow,  

DLR